Find Starlink 30332

NORAD ID: 57700 Int'l Des: 2023-129 Owner: SPXS Country: US Constellation: starlink operational
LEOCIRCULAR

Current View

Loading 3D Globe...

About Starlink 30332

Starlink 30332 (NORAD 57700) is a starlink constellation satellite (v2 mini) launched Aug 27, 2023 by SPXS of US. It operates in LEO, CIRCULAR orbit with a mass of 730.00 kg.

About Starlink 30332

Description loading...

Upcoming Passes

Passes for default location (London). Set your location on the main map for personalized predictions.

Altitude History

Loading altitude history...

Two-Line Element Set

1 57700U 23129C 26170.75326426 .00002794 00000-0 11101-3 0 9996
2 57700 42.9997 269.0033 0001606 272.2332 87.8335 15.27582776156060
Epoch: Jun 19, 2026 • Age: 50 hours

Current Status

Altitude 482.2 km
Velocity 7.63 km/s
Sub-Earth Point 14.38°N, 57.18°E
Launch Date Aug 27, 2023
Age 2.8 years
Type internet

Technical Details

Classification Payload
Mass 730.00 kg
Dry Mass 700.00 kg
Total Mass 730.00 kg
Length 0.30 m
Diameter 4.10 m
Span 29.00 m
Shape Box + pan
Manufacturer SPXS
Bus Type Starlink V2M
Phase Status In Orbit
Owner/State SPXS/US

Most Searched